| time (UTC) | temp F | wind direction | speed MPH | gust MPH | rain 1hr in | rain 24hr in | rain mn in | humidity % | barometer mb |
| 20260901045418 | 67 | 251 | 5.0 | 7.0 | 0.00 | 0.00 | 0.00 | 52 | 1022.8 |
| 20260901044913 | 66 | 246 | 1.0 | 1.0 | 0.00 | 0.00 | 0.00 | 51 | 1022.9 |
| 20260901044409 | 67 | 216 | 2.0 | 2.0 | 0.00 | 0.00 | 0.00 | 51 | 1022.9 |
| 20260901043904 | 68 | 195 | 2.0 | 2.0 | 0.00 | 0.00 | 0.00 | 50 | 1023.0 |
| 20260901043400 | 68 | 165 | 3.0 | 6.0 | 0.00 | 0.00 | 0.00 | 49 | 1023.0 |
| 20260901042855 | 70 | 214 | 1.0 | 2.0 | 0.00 | 0.00 | 0.00 | 47 | 1023.0 |
| 20260901042354 | 71 | 200 | 4.0 | 6.0 | 0.00 | 0.00 | 0.00 | 46 | 1023.0 |
| 20260901041850 | 68 | 314 | 1.0 | 1.0 | 0.00 | 0.00 | 0.00 | 49 | 1023.1 |
| 20260901041345 | 69 | 198 | 2.0 | 3.0 | 0.00 | 0.00 | 0.00 | 49 | 1023.2 |
| 20260901040840 | 67 | 206 | 3.0 | 3.0 | 0.00 | 0.00 | 0.00 | 50 | 1023.2 |
| 20260901040339 | 68 | 160 | 3.0 | 6.0 | 0.00 | 0.00 | 0.00 | 49 | 1023.2 |
| 20260901035838 | 68 | 244 | 4.0 | 5.0 | 0.00 | 0.00 | 0.00 | 50 | 1023.2 |
| 20260901035337 | 70 | 171 | 4.0 | 5.0 | 0.00 | 0.00 | 0.00 | 47 | 1023.6 |
| 20260901034836 | 70 | 26 | 4.0 | 8.0 | 0.00 | 0.00 | 0.00 | 46 | 1023.5 |
| 20260901034331 | 71 | 287 | 3.0 | 5.0 | 0.00 | 0.00 | 0.00 | 46 | 1023.7 |
| 20260901033831 | 71 | 144 | 3.0 | 3.0 | 0.00 | 0.00 | 0.00 | 46 | 1023.5 |
| 20260901033330 | 71 | 304 | 1.0 | 2.0 | 0.00 | 0.00 | 0.00 | 47 | 1024.1 |
| 20260901032829 | 69 | 220 | 5.0 | 7.0 | 0.00 | 0.00 | 0.00 | 47 | 1024.0 |
| 20260901032328 | 70 | 205 | 4.0 | 6.0 | 0.00 | 0.00 | 0.00 | 46 | 1023.9 |
| 20260901031824 | 69 | 127 | 2.0 | 3.0 | 0.00 | 0.00 | 0.00 | 48 | 1024.2 |
| 20260901031320 | 69 | 189 | 5.0 | 6.0 | 0.00 | 0.00 | 0.00 | 47 | 1024.3 |
| 20260901030819 | 71 | 276 | 3.0 | 5.0 | 0.00 | 0.00 | 0.00 | 47 | 1024.2 |
| 20260901030315 | 69 | 293 | 3.0 | 3.0 | 0.00 | 0.00 | 0.00 | 48 | 1024.3 |
| 20260901025814 | 70 | 24 | 1.0 | 2.0 | 0.00 | 0.00 | 0.00 | 47 | 1024.5 |
| 20260901025309 | 68 | 35 | 2.0 | 3.0 | 0.00 | 0.00 | 0.00 | 49 | 1024.2 |
| 20260901024804 | 67 | 44 | 2.0 | 3.0 | 0.00 | 0.00 | 0.00 | 50 | 1024.4 |
| 20260901024303 | 67 | 78 | 2.0 | 3.0 | 0.00 | 0.00 | 0.00 | 49 | 1024.6 |
| 20260901023801 | 68 | 168 | 3.0 | 5.0 | 0.00 | 0.00 | 0.00 | 47 | 1024.9 |
| 20260901023256 | 70 | 179 | 4.0 | 5.0 | 0.00 | 0.00 | 0.00 | 47 | 1024.7 |
| 20260901022751 | 69 | 220 | 3.0 | 3.0 | 0.00 | 0.00 | 0.00 | 49 | 1025.0 |
| 20260901022247 | 69 | 105 | 3.0 | 5.0 | 0.00 | 0.00 | 0.00 | 48 | 1025.0 |
| 20260901021742 | 69 | 221 | 1.0 | 2.0 | 0.00 | 0.00 | 0.00 | 48 | 1025.2 |
| 20260901021238 | 68 | 190 | 1.0 | 2.0 | 0.00 | 0.00 | 0.00 | 48 | 1024.9 |
| 20260901020733 | 68 | 183 | 4.0 | 7.0 | 0.00 | 0.00 | 0.00 | 51 | 1025.1 |
| 20260901020229 | 68 | 253 | 1.0 | 2.0 | 0.00 | 0.00 | 0.00 | 49 | 1025.6 |
| 20260901015729 | 69 | 349 | 1.0 | 2.0 | 0.00 | 0.00 | 0.00 | 50 | 1025.5 |
| 20260901015225 | 68 | 213 | 1.0 | 1.0 | 0.00 | 0.00 | 0.00 | 53 | 1025.5 |
| 20260901014724 | 69 | 245 | 2.0 | 2.0 | 0.00 | 0.00 | 0.00 | 51 | 1025.7 |
| 20260901014220 | 69 | 331 | 3.0 | 5.0 | 0.00 | 0.00 | 0.00 | 53 | 1025.8 |
| 20260901013715 | 69 | 314 | 3.0 | 5.0 | 0.00 | 0.00 | 0.00 | 53 | 1026.3 |
| 20260901013211 | 69 | 218 | 1.0 | 2.0 | 0.00 | 0.00 | 0.00 | 53 | 1025.9 |
| 20260901012706 | 69 | 15 | 2.0 | 3.0 | 0.00 | 0.00 | 0.00 | 54 | 1026.2 |
| 20260901012201 | 67 | 347 | 0.0 | 0.0 | 0.00 | 0.00 | 0.00 | 58 | 1026.6 |
| 20260901011657 | 66 | 355 | 4.0 | 6.0 | 0.00 | 0.00 | 0.00 | 59 | 1026.7 |
| 20260901011156 | 66 | 20 | 2.0 | 2.0 | 0.00 | 0.00 | 0.00 | 60 | 1026.2 |
| 20260901010651 | 65 | 354 | 3.0 | 3.0 | 0.00 | 0.00 | 0.00 | 61 | 1026.8 |
| 20260901010150 | 65 | 339 | 1.0 | 1.0 | 0.00 | 0.00 | 0.00 | 61 | 1027.0 |
| 20260901005644 | 64 | 355 | 1.0 | 1.0 | 0.00 | 0.00 | 0.00 | 62 | 1027.1 |
| 20260901005140 | 64 | 26 | 1.0 | 1.0 | 0.00 | 0.00 | 0.00 | 62 | 1027.0 |
| 20260901004639 | 64 | 359 | 3.0 | 3.0 | 0.00 | 0.00 | 0.00 | 61 | 1027.1 |
| 20260901004133 | 66 | 339 | 1.0 | 2.0 | 0.00 | 0.00 | 0.00 | 59 | 1027.3 |
| 20260901003628 | 65 | 354 | 1.0 | 1.0 | 0.00 | 0.00 | 0.00 | 60 | 1027.3 |
| 20260901003122 | 64 | 345 | 2.0 | 3.0 | 0.00 | 0.00 | 0.00 | 61 | 1027.5 |
| 20260901002622 | 63 | 346 | 1.0 | 1.0 | 0.00 | 0.00 | 0.00 | 63 | 1027.4 |
| 20260901002116 | 62 | 349 | 2.0 | 3.0 | 0.00 | 0.00 | 0.00 | 63 | 1027.5 |
| 20260901001606 | 62 | 20 | 1.0 | 1.0 | 0.00 | 0.00 | 0.00 | 63 | 1027.7 |
| 20260901001101 | 62 | 30 | 2.0 | 2.0 | 0.00 | 0.00 | 0.00 | 63 | 1027.7 |
| 20260901000555 | 61 | 338 | 0.0 | 0.0 | 0.00 | 0.00 | 0.00 | 66 | 1027.7 |
| 20260901000051 | 62 | 12 | 0.0 | 1.0 | 0.00 | 0.00 | 0.00 | 63 | 1027.8 |
| 20260831235544 | 61 | 336 | 0.0 | 0.0 | 0.00 | 0.00 | 0.00 | 63 | 1028.2 |
| 20260831235040 | 60 | 43 | 0.0 | 0.0 | 0.00 | 0.00 | 0.00 | 64 | 1028.2 |
| 20260831234534 | 61 | 5 | 3.0 | 3.0 | 0.00 | 0.00 | 0.00 | 62 | 1028.2 |
| 20260831234031 | 61 | 60 | 1.0 | 1.0 | 0.00 | 0.00 | 0.00 | 61 | 1028.6 |
| 20260831233525 | 60 | 47 | 0.0 | 0.0 | 0.00 | 0.00 | 0.00 | 63 | 1028.6 |
| 20260831233020 | 59 | 2 | 0.0 | 0.0 | 0.00 | 0.00 | 0.00 | 64 | 1028.5 |
| 20260831232516 | 59 | 26 | 1.0 | 1.0 | 0.00 | 0.00 | 0.00 | 64 | 1028.5 |
| 20260831232011 | 57 | 16 | 0.0 | 1.0 | 0.00 | 0.00 | 0.00 | 67 | 1028.6 |
| 20260831231508 | 57 | 295 | 1.0 | 1.0 | 0.00 | 0.00 | 0.00 | 67 | 1028.7 |
| 20260831231004 | 58 | 210 | 1.0 | 1.0 | 0.00 | 0.00 | 0.00 | 66 | 1028.6 |
| 20260831230459 | 57 | 38 | 0.0 | 0.0 | 0.00 | 0.00 | 0.00 | 69 | 1028.7 |
| 20260831225958 | 56 | 0 | 0.0 | 0.0 | 0.00 | 0.00 | 0.00 | 71 | 1028.8 |
| 20260831225455 | 54 | 342 | 0.0 | 0.0 | 0.00 | 0.00 | 0.00 | 74 | 1028.8 |
| 20260831224954 | 53 | 335 | 0.0 | 0.0 | 0.00 | 0.00 | 0.00 | 74 | 1028.9 |
| 20260831224449 | 53 | 65 | 0.0 | 1.0 | 0.00 | 0.00 | 0.00 | 73 | 1028.9 |
| 20260831223944 | 53 | 286 | 1.0 | 1.0 | 0.00 | 0.00 | 0.00 | 73 | 1028.9 |
| 20260831223439 | 52 | 355 | 0.0 | 0.0 | 0.00 | 0.00 | 0.00 | 75 | 1028.9 |
| 20260831222936 | 52 | 355 | 0.0 | 0.0 | 0.00 | 0.00 | 0.00 | 76 | 1028.9 |
| 20260831222431 | 50 | 35 | 0.0 | 1.0 | 0.00 | 0.00 | 0.00 | 80 | 1029.1 |
| 20260831221926 | 51 | 221 | 1.0 | 1.0 | 0.00 | 0.00 | 0.00 | 78 | 1029.0 |
| 20260831221422 | 49 | 356 | 1.0 | 1.0 | 0.00 | 0.00 | 0.00 | 81 | 1029.2 |
| 20260831220917 | 49 | 277 | 1.0 | 1.0 | 0.00 | 0.00 | 0.00 | 85 | 1029.2 |
| 20260831220412 | 49 | 303 | 0.0 | 0.0 | 0.00 | 0.00 | 0.00 | 88 | 1029.2 |
| 20260831215907 | 47 | 359 | 0.0 | 0.0 | 0.00 | 0.00 | 0.00 | 93 | 1029.0 |
| 20260831215403 | 47 | 7 | 1.0 | 1.0 | 0.00 | 0.00 | 0.00 | 99 | 1029.2 |
| 20260831214859 | 46 | 351 | 0.0 | 0.0 | 0.00 | 0.00 | 0.00 | 99 | 1029.3 |
| 20260831214356 | 45 | 313 | 0.0 | 0.0 | 0.00 | 0.00 | 0.00 | 99 | 1029.4 |
| 20260831213852 | 44 | 40 | 0.0 | 0.0 | 0.00 | 0.00 | 0.00 | 99 | 1029.2 |
| 20260831213348 | 43 | 16 | 0.0 | 0.0 | 0.00 | 0.00 | 0.00 | 99 | 1029.3 |
| 20260831212843 | 41 | 338 | 0.0 | 0.0 | 0.00 | 0.00 | 0.00 | 99 | 1029.4 |
| 20260831212340 | 40 | 324 | 0.0 | 0.0 | 0.00 | 0.00 | 0.00 | 99 | 1029.4 |
| 20260831211838 | 39 | 300 | 0.0 | 0.0 | 0.00 | 0.00 | 0.00 | 99 | 1029.4 |
| 20260831211333 | 38 | 287 | 0.0 | 0.0 | 0.00 | 0.00 | 0.00 | 99 | 1029.3 |
| 20260831210833 | 37 | 288 | 0.0 | 0.0 | 0.00 | 0.00 | 0.00 | 99 | 1028.9 |
| 20260831210329 | 36 | 292 | 0.0 | 0.0 | 0.00 | 0.00 | 0.00 | 99 | 1029.4 |
| 20260831205824 | 35 | 301 | 0.0 | 0.0 | 0.00 | 0.00 | 0.00 | 99 | 1029.2 |
| 20260831205320 | 35 | 297 | 0.0 | 0.0 | 0.00 | 0.00 | 0.00 | 99 | 1029.0 |
| 20260831204820 | 34 | 293 | 0.0 | 0.0 | 0.00 | 0.00 | 0.00 | 99 | 1029.2 |
| 20260831204319 | 34 | 290 | 0.0 | 0.0 | 0.00 | 0.00 | 0.00 | 99 | 1029.0 |
| 20260831203818 | 34 | 297 | 0.0 | 0.0 | 0.00 | 0.00 | 0.00 | 99 | 1028.9 |
| 20260831203313 | 34 | 285 | 0.0 | 0.0 | 0.00 | 0.00 | 0.00 | 99 | 1029.0 |
| 20260831202811 | 34 | 291 | 0.0 | 0.0 | 0.00 | 0.00 | 0.00 | 99 | 1028.7 |
| 20260831202306 | 34 | 291 | 0.0 | 0.0 | 0.00 | 0.00 | 0.00 | 99 | 1028.7 |
| 20260831201800 | 34 | 282 | 0.0 | 0.0 | 0.00 | 0.00 | 0.00 | 99 | 1028.9 |
| 20260831201259 | 34 | 288 | 0.0 | 0.0 | 0.00 | 0.00 | 0.00 | 99 | 1028.7 |
| 20260831200755 | 34 | 287 | 0.0 | 0.0 | 0.00 | 0.00 | 0.00 | 99 | 1028.7 |
| 20260831200250 | 34 | 287 | 0.0 | 0.0 | 0.00 | 0.00 | 0.00 | 99 | 1028.8 |
| 20260831195745 | 34 | 287 | 0.0 | 0.0 | 0.00 | 0.00 | 0.00 | 99 | 1028.8 |
| 20260831195241 | 34 | 287 | 0.0 | 0.0 | 0.00 | 0.00 | 0.00 | 99 | 1028.8 |
| 20260831194736 | 34 | 291 | 0.0 | 0.0 | 0.00 | 0.00 | 0.00 | 99 | 1028.7 |
| 20260831194232 | 34 | 283 | 0.0 | 0.0 | 0.00 | 0.00 | 0.00 | 99 | 1028.6 |
| 20260831193725 | 34 | 290 | 0.0 | 0.0 | 0.00 | 0.00 | 0.00 | 99 | 1028.6 |
| 20260831193221 | 34 | 292 | 0.0 | 0.0 | 0.00 | 0.00 | 0.00 | 99 | 1028.8 |
| 20260831192716 | 34 | 284 | 0.0 | 0.0 | 0.00 | 0.00 | 0.00 | 99 | 1028.6 |
| 20260831192211 | 34 | 283 | 0.0 | 0.0 | 0.00 | 0.00 | 0.00 | 99 | 1028.7 |
| 20260831191707 | 34 | 291 | 0.0 | 0.0 | 0.00 | 0.00 | 0.00 | 99 | 1028.9 |
| 20260831191203 | 34 | 293 | 0.0 | 0.0 | 0.00 | 0.00 | 0.00 | 99 | 1028.7 |
| 20260831190657 | 34 | 293 | 0.0 | 0.0 | 0.00 | 0.00 | 0.00 | 99 | 1028.6 |
| 20260831190157 | 35 | 294 | 0.0 | 0.0 | 0.00 | 0.00 | 0.00 | 99 | 1028.5 |
| 20260831185652 | 35 | 293 | 0.0 | 0.0 | 0.00 | 0.00 | 0.00 | 99 | 1028.6 |
| 20260831185148 | 35 | 292 | 0.0 | 0.0 | 0.00 | 0.00 | 0.00 | 99 | 1028.7 |
| 20260831184647 | 35 | 292 | 0.0 | 0.0 | 0.00 | 0.00 | 0.00 | 99 | 1028.7 |
| 20260831184143 | 35 | 288 | 0.0 | 0.0 | 0.00 | 0.00 | 0.00 | 99 | 1028.6 |
| 20260831183642 | 35 | 287 | 0.0 | 0.0 | 0.00 | 0.00 | 0.00 | 99 | 1028.5 |
| 20260831183142 | 36 | 288 | 0.0 | 0.0 | 0.00 | 0.00 | 0.00 | 99 | 1028.8 |
| 20260831182641 | 36 | 287 | 0.0 | 0.0 | 0.00 | 0.00 | 0.00 | 99 | 1028.7 |
| 20260831182137 | 36 | 280 | 0.0 | 0.0 | 0.00 | 0.00 | 0.00 | 99 | 1028.6 |
| 20260831181637 | 36 | 272 | 0.0 | 0.0 | 0.00 | 0.00 | 0.00 | 99 | 1028.7 |
| 20260831181137 | 36 | 288 | 0.0 | 0.0 | 0.00 | 0.00 | 0.00 | 99 | 1028.6 |
| 20260831180633 | 36 | 289 | 0.0 | 0.0 | 0.00 | 0.00 | 0.00 | 99 | 1028.7 |
| 20260831180128 | 36 | 283 | 0.0 | 0.0 | 0.00 | 0.00 | 0.00 | 99 | 1028.7 |
| 20260831175622 | 36 | 287 | 0.0 | 0.0 | 0.00 | 0.00 | 0.00 | 99 | 1028.7 |
| 20260831175120 | 37 | 287 | 0.0 | 0.0 | 0.00 | 0.00 | 0.00 | 99 | 1028.6 |
| 20260831174619 | 37 | 287 | 0.0 | 0.0 | 0.00 | 0.00 | 0.00 | 99 | 1028.6 |
| 20260831174114 | 37 | 291 | 0.0 | 0.0 | 0.00 | 0.00 | 0.00 | 99 | 1028.6 |
| 20260831173612 | 37 | 285 | 0.0 | 0.0 | 0.00 | 0.00 | 0.00 | 98 | 1028.4 |
| 20260831173109 | 37 | 279 | 0.0 | 0.0 | 0.00 | 0.00 | 0.00 | 98 | 1028.5 |
| 20260831172608 | 37 | 271 | 0.0 | 0.0 | 0.00 | 0.00 | 0.00 | 99 | 1028.6 |
| 20260831172103 | 38 | 282 | 0.0 | 0.0 | 0.00 | 0.00 | 0.00 | 99 | 1028.6 |
| 20260831171559 | 38 | 288 | 0.0 | 0.0 | 0.00 | 0.00 | 0.00 | 98 | 1028.5 |
| 20260831171056 | 38 | 285 | 0.0 | 0.0 | 0.00 | 0.00 | 0.00 | 98 | 1028.6 |
| 20260831170551 | 38 | 304 | 0.0 | 0.0 | 0.00 | 0.00 | 0.00 | 98 | 1028.7 |
| 20260831170049 | 38 | 299 | 0.0 | 0.0 | 0.00 | 0.00 | 0.00 | 98 | 1028.6 |
| 20260831165549 | 38 | 296 | 0.0 | 0.0 | 0.00 | 0.00 | 0.00 | 98 | 1028.9 |
| 20260831165046 | 38 | 287 | 0.0 | 0.0 | 0.00 | 0.00 | 0.00 | 98 | 1028.8 |
| 20260831164541 | 39 | 279 | 0.0 | 0.0 | 0.00 | 0.00 | 0.00 | 98 | 1028.7 |
| 20260831164037 | 39 | 294 | 0.0 | 0.0 | 0.00 | 0.00 | 0.00 | 98 | 1028.8 |
| 20260831163532 | 39 | 302 | 0.0 | 0.0 | 0.00 | 0.00 | 0.00 | 98 | 1028.9 |
| 20260831163027 | 39 | 286 | 0.0 | 0.0 | 0.00 | 0.00 | 0.00 | 98 | 1028.9 |
| 20260831162526 | 39 | 245 | 1.0 | 1.0 | 0.00 | 0.00 | 0.00 | 98 | 1029.0 |
| 20260831162024 | 39 | 273 | 0.0 | 0.0 | 0.00 | 0.00 | 0.00 | 98 | 1029.0 |
| 20260831161521 | 39 | 291 | 0.0 | 0.0 | 0.00 | 0.00 | 0.00 | 98 | 1029.0 |
| 20260831161016 | 39 | 277 | 0.0 | 0.0 | 0.00 | 0.00 | 0.00 | 98 | 1029.3 |
| 20260831160516 | 39 | 292 | 0.0 | 0.0 | 0.00 | 0.00 | 0.00 | 97 | 1029.3 |
| 20260831160012 | 39 | 297 | 0.0 | 0.0 | 0.00 | 0.00 | 0.00 | 97 | 1029.4 |
| 20260831155506 | 39 | 285 | 0.0 | 0.0 | 0.00 | 0.00 | 0.00 | 97 | 1029.3 |
| 20260831155001 | 39 | 288 | 0.0 | 0.0 | 0.00 | 0.00 | 0.00 | 97 | 1029.2 |
| 20260831154458 | 39 | 292 | 0.0 | 0.0 | 0.00 | 0.00 | 0.00 | 97 | 1029.3 |
| 20260831153956 | 39 | 292 | 0.0 | 0.0 | 0.00 | 0.00 | 0.00 | 97 | 1029.4 |
| 20260831153451 | 39 | 292 | 0.0 | 0.0 | 0.00 | 0.00 | 0.00 | 97 | 1029.5 |
| 20260831152948 | 39 | 292 | 0.0 | 0.0 | 0.00 | 0.00 | 0.00 | 97 | 1029.4 |
| 20260831152443 | 40 | 283 | 0.0 | 0.0 | 0.00 | 0.00 | 0.00 | 96 | 1029.7 |
| 20260831151938 | 40 | 282 | 0.0 | 0.0 | 0.00 | 0.00 | 0.00 | 96 | 1029.8 |
| 20260831151437 | 40 | 281 | 0.0 | 0.0 | 0.00 | 0.00 | 0.00 | 96 | 1029.4 |
| 20260831150933 | 40 | 283 | 0.0 | 0.0 | 0.00 | 0.00 | 0.00 | 96 | 1029.4 |
| 20260831150428 | 40 | 277 | 0.0 | 0.0 | 0.00 | 0.00 | 0.00 | 96 | 1029.5 |
| 20260831145928 | 40 | 277 | 0.0 | 0.0 | 0.00 | 0.00 | 0.00 | 96 | 1029.3 |
| 20260831145424 | 40 | 279 | 0.0 | 0.0 | 0.00 | 0.00 | 0.00 | 96 | 1029.8 |
| 20260831144920 | 40 | 284 | 0.0 | 0.0 | 0.00 | 0.00 | 0.00 | 96 | 1029.7 |
| 20260831144415 | 41 | 258 | 0.0 | 0.0 | 0.00 | 0.00 | 0.00 | 96 | 1029.7 |
| 20260831143915 | 41 | 277 | 0.0 | 0.0 | 0.00 | 0.00 | 0.00 | 96 | 1029.4 |
| 20260831143411 | 41 | 279 | 0.0 | 0.0 | 0.00 | 0.00 | 0.00 | 95 | 1029.5 |
| 20260831142907 | 41 | 286 | 0.0 | 0.0 | 0.00 | 0.00 | 0.00 | 95 | 1029.7 |
| 20260831142402 | 41 | 270 | 0.0 | 0.0 | 0.00 | 0.00 | 0.00 | 95 | 1029.9 |
| 20260831141856 | 41 | 268 | 0.0 | 0.0 | 0.00 | 0.00 | 0.00 | 95 | 1029.5 |
| 20260831141350 | 42 | 285 | 0.0 | 0.0 | 0.00 | 0.00 | 0.00 | 95 | 1029.8 |
| 20260831140845 | 42 | 274 | 0.0 | 0.0 | 0.00 | 0.00 | 0.00 | 95 | 1029.7 |
| 20260831140340 | 42 | 270 | 0.0 | 0.0 | 0.00 | 0.00 | 0.00 | 95 | 1029.8 |
| 20260831135838 | 42 | 275 | 0.0 | 0.0 | 0.00 | 0.00 | 0.00 | 94 | 1030.1 |
| 20260831135333 | 41 | 290 | 0.0 | 0.0 | 0.00 | 0.00 | 0.00 | 94 | 1029.9 |
| 20260831134829 | 42 | 290 | 0.0 | 0.0 | 0.00 | 0.00 | 0.00 | 94 | 1029.8 |
| 20260831134325 | 42 | 277 | 0.0 | 0.0 | 0.00 | 0.00 | 0.00 | 94 | 1029.8 |
| 20260831133824 | 42 | 267 | 0.0 | 0.0 | 0.00 | 0.00 | 0.00 | 94 | 1029.8 |
| 20260831133324 | 42 | 272 | 0.0 | 0.0 | 0.00 | 0.00 | 0.00 | 93 | 1029.8 |
| 20260831132820 | 43 | 293 | 0.0 | 0.0 | 0.00 | 0.00 | 0.00 | 93 | 1030.0 |
| 20260831132315 | 43 | 292 | 0.0 | 0.0 | 0.00 | 0.00 | 0.00 | 93 | 1029.8 |
| 20260831131809 | 44 | 298 | 0.0 | 0.0 | 0.00 | 0.00 | 0.00 | 93 | 1030.1 |
| 20260831131306 | 44 | 298 | 0.0 | 0.0 | 0.00 | 0.00 | 0.00 | 93 | 1030.0 |
| 20260831130805 | 44 | 281 | 0.0 | 0.0 | 0.00 | 0.00 | 0.00 | 93 | 1030.0 |
| 20260831130301 | 44 | 272 | 0.0 | 0.0 | 0.00 | 0.00 | 0.00 | 93 | 1030.3 |
| 20260831125800 | 44 | 258 | 0.0 | 1.0 | 0.00 | 0.00 | 0.00 | 93 | 1030.1 |
| 20260831125255 | 44 | 287 | 0.0 | 0.0 | 0.00 | 0.00 | 0.00 | 92 | 1030.0 |
| 20260831124750 | 44 | 290 | 0.0 | 0.0 | 0.00 | 0.00 | 0.00 | 92 | 1030.1 |
| 20260831124246 | 44 | 297 | 0.0 | 0.0 | 0.00 | 0.00 | 0.00 | 92 | 1030.3 |
| 20260831123741 | 45 | 283 | 0.0 | 0.0 | 0.00 | 0.00 | 0.00 | 92 | 1030.1 |
| 20260831123240 | 45 | 235 | 1.0 | 1.0 | 0.00 | 0.00 | 0.00 | 92 | 1030.3 |
| 20260831122739 | 45 | 241 | 1.0 | 1.0 | 0.00 | 0.00 | 0.00 | 91 | 1030.1 |
| 20260831122235 | 45 | 286 | 0.0 | 0.0 | 0.00 | 0.00 | 0.00 | 91 | 1030.3 |
| 20260831121734 | 45 | 252 | 0.0 | 1.0 | 0.00 | 0.00 | 0.00 | 91 | 1030.0 |
| 20260831121231 | 46 | 305 | 0.0 | 0.0 | 0.00 | 0.00 | 0.00 | 90 | 1030.0 |
| 20260831120726 | 46 | 315 | 0.0 | 0.0 | 0.00 | 0.00 | 0.00 | 90 | 1030.1 |
| 20260831120221 | 46 | 261 | 0.0 | 0.0 | 0.00 | 0.00 | 0.00 | 89 | 1030.2 |
| 20260831115716 | 46 | 290 | 0.0 | 0.0 | 0.00 | 0.00 | 0.00 | 88 | 1030.0 |
| 20260831115213 | 46 | 267 | 0.0 | 0.0 | 0.00 | 0.00 | 0.00 | 88 | 1030.2 |
| 20260831114712 | 47 | 290 | 0.0 | 0.0 | 0.00 | 0.00 | 0.00 | 88 | 1030.2 |
| 20260831114211 | 47 | 262 | 0.0 | 1.0 | 0.00 | 0.00 | 0.00 | 87 | 1030.3 |
| 20260831113707 | 48 | 319 | 0.0 | 0.0 | 0.00 | 0.00 | 0.00 | 87 | 1029.9 |
| 20260831113201 | 48 | 231 | 1.0 | 1.0 | 0.00 | 0.00 | 0.00 | 87 | 1030.1 |
| 20260831112700 | 48 | 243 | 1.0 | 2.0 | 0.00 | 0.00 | 0.00 | 87 | 1030.0 |
| 20260831112156 | 48 | 234 | 1.0 | 1.0 | 0.00 | 0.00 | 0.00 | 87 | 1030.0 |
| 20260831111651 | 48 | 273 | 0.0 | 0.0 | 0.00 | 0.00 | 0.00 | 86 | 1030.1 |
| 20260831111147 | 48 | 245 | 0.0 | 0.0 | 0.00 | 0.00 | 0.00 | 86 | 1030.2 |
| 20260831110643 | 49 | 252 | 0.0 | 1.0 | 0.00 | 0.00 | 0.00 | 86 | 1030.1 |
| 20260831110138 | 49 | 232 | 1.0 | 1.0 | 0.00 | 0.00 | 0.00 | 87 | 1030.1 |
| 20260831105637 | 48 | 227 | 1.0 | 1.0 | 0.00 | 0.00 | 0.00 | 86 | 1030.1 |
| 20260831105132 | 48 | 289 | 0.0 | 0.0 | 0.00 | 0.00 | 0.00 | 86 | 1030.0 |
| 20260831104627 | 48 | 326 | 0.0 | 0.0 | 0.00 | 0.00 | 0.00 | 85 | 1029.9 |
| 20260831104124 | 49 | 261 | 0.0 | 0.0 | 0.00 | 0.00 | 0.00 | 84 | 1029.8 |
| 20260831103618 | 49 | 267 | 0.0 | 0.0 | 0.00 | 0.00 | 0.00 | 83 | 1030.0 |
| 20260831103109 | 49 | 280 | 0.0 | 0.0 | 0.00 | 0.00 | 0.00 | 82 | 1030.1 |
| 20260831102608 | 50 | 277 | 0.0 | 0.0 | 0.00 | 0.00 | 0.00 | 82 | 1029.9 |
| 20260831102103 | 50 | 268 | 0.0 | 0.0 | 0.00 | 0.00 | 0.00 | 81 | 1029.8 |
| 20260831101603 | 51 | 282 | 0.0 | 0.0 | 0.00 | 0.00 | 0.00 | 81 | 1030.0 |
| 20260831101100 | 51 | 266 | 0.0 | 0.0 | 0.00 | 0.00 | 0.00 | 82 | 1030.2 |
| 20260831100555 | 50 | 198 | 1.0 | 1.0 | 0.00 | 0.00 | 0.00 | 81 | 1030.0 |
| 20260831100051 | 51 | 285 | 0.0 | 0.0 | 0.00 | 0.00 | 0.00 | 81 | 1029.9 |
| 20260831095549 | 51 | 283 | 0.0 | 0.0 | 0.00 | 0.00 | 0.00 | 80 | 1030.0 |
| 20260831095044 | 51 | 290 | 0.0 | 0.0 | 0.00 | 0.00 | 0.00 | 79 | 1030.0 |
| 20260831094540 | 51 | 307 | 0.0 | 0.0 | 0.00 | 0.00 | 0.00 | 79 | 1029.5 |
| 20260831094036 | 51 | 306 | 0.0 | 0.0 | 0.00 | 0.00 | 0.00 | 78 | 1029.7 |
| 20260831093531 | 51 | 280 | 0.0 | 0.0 | 0.00 | 0.00 | 0.00 | 78 | 1029.8 |
| 20260831093027 | 51 | 287 | 0.0 | 0.0 | 0.00 | 0.00 | 0.00 | 76 | 1029.5 |
| 20260831092523 | 52 | 300 | 0.0 | 0.0 | 0.00 | 0.00 | 0.00 | 76 | 1029.8 |
| 20260831092019 | 52 | 277 | 0.0 | 0.0 | 0.00 | 0.00 | 0.00 | 75 | 1029.4 |
| 20260831091513 | 52 | 243 | 0.0 | 0.0 | 0.00 | 0.00 | 0.00 | 74 | 1029.5 |
| 20260831091008 | 53 | 283 | 0.0 | 0.0 | 0.00 | 0.00 | 0.00 | 74 | 1029.7 |
| 20260831090504 | 53 | 246 | 0.0 | 0.0 | 0.00 | 0.00 | 0.00 | 74 | 1029.7 |
| 20260831090000 | 53 | 289 | 0.0 | 0.0 | 0.00 | 0.00 | 0.00 | 72 | 1029.5 |
| 20260831085455 | 54 | 260 | 0.0 | 0.0 | 0.00 | 0.00 | 0.00 | 72 | 1029.4 |
| 20260831084954 | 54 | 220 | 1.0 | 1.0 | 0.00 | 0.00 | 0.00 | 72 | 1029.2 |
| 20260831084451 | 54 | 258 | 0.0 | 0.0 | 0.00 | 0.00 | 0.00 | 71 | 1029.3 |
| 20260831083948 | 55 | 269 | 0.0 | 0.0 | 0.00 | 0.00 | 0.00 | 69 | 1029.3 |
| 20260831083442 | 55 | 255 | 0.0 | 1.0 | 0.00 | 0.00 | 0.00 | 69 | 1029.2 |
| 20260831082941 | 56 | 250 | 1.0 | 1.0 | 0.00 | 0.00 | 0.00 | 68 | 1029.2 |
| 20260831082443 | 56 | 259 | 0.0 | 0.0 | 0.00 | 0.00 | 0.00 | 66 | 1029.2 |
| 20260831081937 | 57 | 274 | 0.0 | 0.0 | 0.00 | 0.00 | 0.00 | 64 | 1029.2 |
| 20260831081433 | 58 | 258 | 0.0 | 0.0 | 0.00 | 0.00 | 0.00 | 64 | 1029.1 |
| 20260831080929 | 58 | 250 | 1.0 | 1.0 | 0.00 | 0.00 | 0.00 | 63 | 1029.1 |
| 20260831080423 | 59 | 265 | 0.0 | 0.0 | 0.00 | 0.00 | 0.00 | 61 | 1029.2 |
| 20260831075919 | 60 | 237 | 0.0 | 1.0 | 0.00 | 0.00 | 0.00 | 61 | 1029.3 |
| 20260831075414 | 61 | 247 | 0.0 | 1.0 | 0.00 | 0.00 | 0.00 | 59 | 1029.2 |
| 20260831074909 | 62 | 259 | 0.0 | 0.0 | 0.00 | 0.00 | 0.00 | 55 | 1029.0 |
| 20260831074408 | 63 | 258 | 0.0 | 0.0 | 0.00 | 0.00 | 0.00 | 52 | 1029.0 |
| 20260831073903 | 64 | 253 | 0.0 | 0.0 | 0.00 | 0.00 | 0.00 | 51 | 1028.9 |
| 20260831073402 | 64 | 254 | 0.0 | 0.0 | 0.00 | 0.00 | 0.00 | 49 | 1028.9 |
| 20260831072857 | 65 | 257 | 0.0 | 0.0 | 0.00 | 0.00 | 0.00 | 48 | 1028.9 |
| 20260831072353 | 66 | 198 | 1.0 | 1.0 | 0.00 | 0.00 | 0.00 | 47 | 1028.9 |
| 20260831071849 | 66 | 246 | 0.0 | 1.0 | 0.00 | 0.00 | 0.00 | 46 | 1028.7 |
| 20260831071348 | 66 | 233 | 1.0 | 1.0 | 0.00 | 0.00 | 0.00 | 46 | 1028.7 |
| 20260831070843 | 66 | 261 | 0.0 | 0.0 | 0.00 | 0.00 | 0.00 | 46 | 1028.8 |
| 20260831070342 | 66 | 248 | 1.0 | 1.0 | 0.00 | 0.00 | 0.00 | 46 | 1028.8 |
| 20260831065842 | 66 | 165 | 1.0 | 1.0 | 0.00 | 0.00 | 0.00 | 45 | 1028.8 |
| 20260831065339 | 67 | 235 | 1.0 | 1.0 | 0.00 | 0.00 | 0.00 | 45 | 1029.0 |
| 20260831064835 | 67 | 223 | 1.0 | 2.0 | 0.00 | 0.00 | 0.00 | 45 | 1028.8 |
| 20260831064330 | 67 | 309 | 0.0 | 0.0 | 0.00 | 0.00 | 0.00 | 44 | 1028.9 |
| 20260831063826 | 67 | 286 | 0.0 | 0.0 | 0.00 | 0.00 | 0.00 | 44 | 1028.8 |
| 20260831063326 | 67 | 244 | 2.0 | 2.0 | 0.00 | 0.00 | 0.00 | 43 | 1028.9 |
| 20260831062821 | 68 | 311 | 0.0 | 0.0 | 0.00 | 0.00 | 0.00 | 43 | 1028.6 |
| 20260831062316 | 68 | 238 | 1.0 | 2.0 | 0.00 | 0.00 | 0.00 | 43 | 1028.8 |
| 20260831061815 | 68 | 300 | 1.0 | 2.0 | 0.00 | 0.00 | 0.00 | 46 | 1028.7 |
| 20260831061314 | 68 | 228 | 2.0 | 2.0 | 0.00 | 0.00 | 0.00 | 44 | 1028.7 |
| 20260831060811 | 68 | 21 | 0.0 | 1.0 | 0.00 | 0.00 | 0.00 | 45 | 1028.6 |
| 20260831060310 | 68 | 317 | 1.0 | 1.0 | 0.00 | 0.00 | 0.00 | 45 | 1028.6 |
| 20260831055810 | 68 | 358 | 2.0 | 2.0 | 0.00 | 0.00 | 0.00 | 45 | 1028.6 |
| 20260831055306 | 68 | 27 | 0.0 | 0.0 | 0.00 | 0.00 | 0.00 | 45 | 1028.6 |
| 20260831054800 | 69 | 324 | 0.0 | 0.0 | 0.00 | 0.00 | 0.00 | 42 | 1028.9 |
| 20260831054255 | 69 | 279 | 1.0 | 2.0 | 0.00 | 0.00 | 0.00 | 42 | 1028.8 |
| 20260831053754 | 69 | 231 | 1.0 | 1.0 | 0.00 | 0.00 | 0.00 | 42 | 1028.7 |
| 20260831053253 | 69 | 14 | 1.0 | 1.0 | 0.00 | 0.00 | 0.00 | 43 | 1029.0 |
| 20260831052747 | 69 | 85 | 3.0 | 5.0 | 0.00 | 0.00 | 0.00 | 41 | 1028.9 |
| 20260831052247 | 69 | 331 | 0.0 | 0.0 | 0.00 | 0.00 | 0.00 | 43 | 1028.9 |
| 20260831051744 | 69 | 346 | 2.0 | 2.0 | 0.00 | 0.00 | 0.00 | 42 | 1028.8 |
| 20260831051244 | 70 | 344 | 2.0 | 2.0 | 0.00 | 0.00 | 0.00 | 42 | 1028.7 |
| 20260831050739 | 70 | 38 | 3.0 | 3.0 | 0.00 | 0.00 | 0.00 | 42 | 1028.9 |
| 20260831050237 | 71 | 324 | 1.0 | 1.0 | 0.00 | 0.00 | 0.00 | 40 | 1028.9 |